RH
6 5 4 5 5 6 6 6 6 6 16 4 6 5 4 5 6 6 6 6 6 8 10 15 22 14 12 15 17 20 24 31 31 26 24 22 27 29 30 28 16 11 14 16
6 5 5 7 6 6 7 6 6 7 8 6 5 4 4 5 6 6 6 6 7 11 11 13 22 25 26 24 22 18 21 27 27 24 24 21 25 24 27 26 14 12 10 12
6 6 6 8 8 5 6 6 6 7 9 6 4 4 5 6 6 6 6 6 11 18 14 16 21 22 28 22 22 18 20 25 26 24 21 21 24 23 27 19 10 13 11 13
6 6 6 7 7 8 6 7 8 8 8 5 6 4 5 6 6 6 5 6 11 17 17 19 21 19 21 31 25 16 20 24 25 25 20 22 21 23 27 14 9 11 10 12
5 6 6 5 5 8 8 10 9 7 6 5 4 4 4 5 5 6 5 5 11 11 14 22 20 19 17 27 30 28 20 22 24 26 21 18 19 24 29 14 10 9 12 14
6 7 7 6 6 7 7 9 8 7 6 4 4 4 4 4 4 5 5 4 5 8 18 18 18 22 23 24 24 26 26 22 23 29 24 18 20 27 31 21 13 12 14 20
6 6 6 7 6 6 7 5 6 6 5 3 5 5 3 3 4 4 5 4 4 6 14 14 17 18 21 22 23 23 24 22 23 28 29 22 22 29 35 30 21 15 15 16
6 7 6 5 6 6 6 6 5 5 5 3 6 3 3 5 4 4 4 4 4 4 11 13 17 21 21 21 19 22 24 24 24 29 31 27 25 31 40 37 34 34 28 32
6 6 7 7 6 8 7 7 4 21 14 8 3 6 3 3 4 4 4 4 3 4 9 13 18 23 24 22 21 22 26 28 24 31 34 34 30 33 36 40 39 42 41 40
11 6 7 8 7 7 10 8 20 13 8 8 4 4 4 8 3 3 4 4 3 4 10 13 18 26 23 20 22 26 26 31 30 33 40 40 39 40 46 43 41 39 35 34
60 38 10 20 6 6 7 8 8 10 8 6 4 5 10 12 4 3 3 3 3 4 10 12 18 21 17 20 27 33 32 36 36 40 45 50 50 49 54 55 51 49 48 50
40 87 40 11 8 8 10 9 8 9 5 6 5 4 6 4 3 3 3 3 3 4 8 11 18 20 18 22 24 30 38 39 40 40 48 58 58 59 68 74 78 79 79 77
13 67 82 27 48 20 6 5 7 9 7 10 6 3 4 5 4 4 3 3 4 5 11 13 19 22 19 24 30 33 39 46 47 43 49 63 70 73 78 81 81 84 87 90
45 47 61 88 35 13 11 9 6 6 7 6 5 4 4 4 4 4 3 4 4 7 12 17 23 18 18 29 32 34 41 47 52 56 53 54 62 72 74 77 74 76 78 82
91 64 51 51 90 79 28 12 9 8 6 6 4 4 4 4 4 3 4 4 4 9 17 20 17 16 20 30 41 39 47 52 56 56 58 56 56 59 61 68 76 84 89 91
73 58 45 43 51 84 69 36 13 10 7 6 5 4 4 4 4 4 5 5 8 12 14 14 14 19 22 29 46 48 56 62 65 68 63 61 68 72 81 99 99 97 97 94
94 56 72 60 36 54 65 94 74 29 11 8 7 6 6 5 6 9 13 16 13 13 14 17 21 25 23 41 48 50 59 66 64 71 71 71 68 70 75 77 82 84 82 81
91 90 90 65 53 52 55 62 60 76 55 29 16 18 18 12 12 15 15 15 15 21 34 36 36 38 48 49 49 56 80 77 70 74 71 68 76 79 70 80 78 72 69 84
93 94 95 77 66 69 61 54 47 46 55 47 32 30 22 17 26 23 26 32 42 42 44 46 51 42 46 49 55 82 91 89 80 73 76 82 89 87 94 99 92 90 89 95
78 100 100 86 75 72 55 26 42 51 56 58 58 46 43 45 51 44 47 50 55 54 50 42 43 50 52 70 86 91 88 83 86 92 87 95 87 81 80 88 84 100 99 100
92 91 88 76 82 64 30 14 37 57 51 48 52 59 63 66 72 68 68 46 35 40 50 49 48 62 71 78 78 77 87 88 86 89 96 94 98 88 93 98 97 96 97 98
84 84 94 85 100 88 17 17 51 52 49 45 55 67 61 58 56 42 40 38 37 48 51 52 55 59 71 80 76 71 74 78 91 92 94 98 98 96 98 98 99 100 98 97
100 96 87 86 62 48 49 62 76 89 60 60 56 45 57 39 28 39 50 54 57 60 55 62 64 71 77 80 81 88 92 97 98 97 97 96 96 96 97 98 98 96 89 65
92 94 98 100 93 73 82 95 93 97 64 69 59 37 47 36 43 58 60 65 68 72 74 71 67 71 89 96 95 93 95 99 99 96 94 91 93 99 99 94 95 95 73 66
87 93 96 93 89 82 73 74 87 72 69 60 54 56 51 47 58 62 60 64 76 73 69 70 78 86 82 81 86 89 81 80 81 79 88 96 100 100 100 97 94 87 78 70
97 79 100 84 95 100 87 89 84 68 70 69 63 70 73 66 66 70 88 96 91 82 73 71 71 76 83 78 87 96 100 99 100 100 98 90 85 89 90 90 83 73 69 68
Wind_Speed
52 51 47 41 46 45 43 46 46 46 39 44 37 40 39 36 31 29 26 25 25 24 26 25 25 25 28 30 33 31 34 29 30 34 33 29 26 26 19 19 17 16 17 16
58 55 46 46 49 48 47 49 45 46 43 46 39 41 38 38 32 30 25 25 24 25 27 31 29 32 33 33 33 34 34 35 28 31 33 31 28 28 23 21 18 20 19 19
61 55 50 50 48 49 48 48 46 46 45 47 42 43 38 37 36 30 27 26 25 25 28 30 34 34 35 32 31 33 36 35 30 32 32 29 31 28 25 23 23 25 23 23
66 58 56 54 51 47 49 49 50 48 48 48 46 48 41 38 37 31 30 28 28 29 28 30 32 36 37 35 32 34 35 37 34 34 31 32 33 30 28 27 28 27 26 25
69 66 62 60 53 53 50 51 51 52 48 51 49 52 38 38 39 35 31 31 32 31 30 35 33 35 37 37 35 35 38 38 35 35 33 35 32 29 28 29 30 29 29 29
72 68 67 60 58 53 51 56 54 53 50 57 53 50 43 41 43 39 34 33 35 34 33 32 35 35 39 44 44 38 38 38 36 34 33 33 32 30 30 32 32 31 33 32
75 73 73 67 64 60 58 59 56 57 58 58 50 49 48 48 47 41 38 37 37 35 34 32 34 39 44 47 50 44 41 39 35 32 34 34 33 32 33 32 33 34 34 35
79 81 77 72 68 66 63 63 60 63 57 57 51 55 52 52 49 42 41 40 39 38 35 35 37 38 42 47 48 47 44 42 36 33 34 36 34 33 32 33 33 34 34 37
80 81 74 77 70 64 68 69 57 50 52 59 60 52 56 54 49 47 44 43 42 41 39 39 41 42 40 43 48 47 43 43 40 35 35 37 36 34 35 35 36 36 38 40
76 77 76 78 78 74 72 63 54 57 62 63 62 56 56 52 55 51 47 45 43 44 42 42 44 46 45 43 45 47 43 42 42 35 36 37 38 36 34 35 37 39 42 43
86 78 77 68 86 80 73 73 72 63 63 64 64 61 46 48 57 57 48 48 47 45 44 47 47 49 47 43 44 48 45 40 41 39 39 39 40 38 37 38 40 41 44 45
79 89 82 81 81 80 73 73 69 66 68 67 64 66 54 56 57 58 53 53 52 48 51 51 49 51 50 46 48 51 48 42 42 43 43 42 41 40 40 41 43 45 47 50
80 85 86 83 68 78 81 78 74 71 68 60 64 67 56 56 59 57 55 53 55 54 52 50 54 55 52 54 51 50 50 46 47 45 44 44 44 44 44 45 47 48 51 52
74 79 92 91 89 80 80 75 71 69 70 66 66 62 57 60 59 57 55 59 59 58 51 54 56 56 58 56 54 52 50 46 48 48 46 45 46 46 45 45 48 50 53 54
71 76 76 80 82 79 77 74 70 69 66 67 62 63 58 55 59 61 61 61 64 58 57 55 57 59 58 61 58 54 50 45 46 48 48 48 46 44 45 47 49 51 54 53
72 74 72 74 69 75 76 71 65 66 66 69 68 67 59 58 59 62 65 68 64 61 59 60 59 60 63 66 63 54 51 48 45 47 47 46 45 45 47 53 60 63 65 68
70 71 68 72 72 69 77 77 74 77 69 66 64 61 50 54 57 58 62 61 61 62 65 64 65 68 70 69 66 59 55 52 49 48 48 47 46 47 48 51 55 58 59 58
73 72 67 69 65 74 75 70 73 79 73 65 62 64 62 61 58 60 62 64 66 70 72 73 73 73 74 71 65 60 51 51 52 52 52 51 52 52 53 52 55 56 56 64
70 66 62 67 68 65 65 63 66 65 68 71 68 71 67 63 63 71 69 69 69 74 77 71 74 72 66 62 60 54 53 51 51 52 53 53 56 58 57 62 63 64 63 70
71 68 67 68 61 68 68 68 64 65 72 64 69 69 71 74 77 71 68 70 72 69 69 68 64 59 58 54 54 54 55 58 58 58 57 58 58 59 58 57 62 69 76 77
57 69 74 71 74 73 75 67 64 74 71 59 58 60 63 66 66 60 63 64 67 66 67 65 63 59 54 53 53 51 51 53 54 53 56 66 59 62 68 69 73 77 82 80
64 64 69 70 71 72 71 68 75 75 70 66 63 60 59 59 60 62 66 67 67 66 65 65 63 62 58 53 53 53 53 52 51 54 57 62 65 63 79 80 83 77 78 81
66 59 53 61 59 52 50 55 62 65 64 64 64 63 61 66 65 64 62 63 61 59 55 53 53 54 53 52 53 55 56 56 56 59 60 63 67 68 71 77 79 80 80 78
59 51 48 46 45 45 49 53 57 61 59 56 60 63 65 63 60 58 59 59 53 52 51 51 53 53 53 53 52 51 52 53 56 61 63 64 66 69 73 75 78 80 81 83
53 54 50 47 44 47 53 55 58 62 62 63 64 65 64 60 58 57 55 53 48 47 47 48 47 45 43 44 46 49 52 56 59 62 64 67 69 72 75 78 81 81 83 85
58 60 55 53 51 54 53 53 58 58 60 61 59 56 55 55 52 49 43 39 38 37 38 40 43 44 46 49 53 56 54 63 64 66 70 71 71 73 75 77 79 82 84 87
Wind_Direction
229 233 235 239 240 235 232 234 232 235 244 245 242 245 250 254 251 256 262 269 277 286 290 299 302 289 282 288 291 295 306 306 293 291 290 289 280 275 263 252 250 248 246 243
229 231 232 233 235 235 232 235 234 240 246 248 243 246 248 254 256 259 259 266 271 282 286 303 305 305 296 289 291 293 297 305 288 281 280 279 271 268 259 252 251 248 238 240
231 233 232 235 235 236 236 238 237 241 244 247 251 245 248 253 254 258 259 262 269 282 285 297 303 304 308 298 288 290 294 301 290 282 275 274 266 266 256 250 243 244 240 243
231 231 231 233 235 235 235 237 236 238 242 248 249 249 247 254 255 253 260 262 263 280 286 290 302 303 308 308 294 290 290 296 293 282 275 270 264 260 252 244 247 245 243 246
228 230 231 232 231 235 234 236 238 238 241 246 246 256 240 255 256 255 256 259 262 276 282 290 296 301 302 303 303 294 287 291 290 282 273 268 266 260 251 246 246 248 248 244
228 232 231 233 235 236 237 239 238 240 240 243 246 254 249 261 261 254 258 259 261 270 278 289 293 300 299 299 296 293 292 288 287 281 270 266 264 260 250 250 251 252 251 254
227 229 231 228 234 233 234 237 239 241 240 241 247 256 259 255 260 262 262 262 265 262 271 280 288 294 300 299 295 293 293 286 285 279 269 265 263 260 257 255 257 257 260 262
232 230 229 229 230 236 236 238 239 242 243 247 254 253 254 259 264 264 265 268 267 266 271 277 287 292 294 301 296 295 297 285 284 281 264 259 257 256 259 258 258 260 261 263
233 233 236 239 234 235 239 237 242 241 245 249 250 253 255 263 263 263 266 263 267 268 273 276 287 291 294 293 293 293 296 287 280 274 261 257 256 254 255 257 260 262 262 264
233 240 237 240 239 232 236 240 235 236 240 247 252 255 258 263 267 265 264 265 267 269 272 278 283 294 294 295 295 293 292 286 278 267 258 255 256 255 258 260 262 265 266 268
228 237 239 239 240 237 236 237 241 242 243 247 250 249 254 258 262 265 268 269 270 270 276 276 284 294 293 299 297 302 291 281 276 267 258 254 255 257 261 265 268 269 269 270
233 234 237 241 243 246 245 241 244 247 246 250 251 251 251 256 260 264 267 269 271 272 273 275 286 291 294 299 300 302 297 277 268 262 258 256 258 258 261 264 267 269 271 272
231 234 234 236 234 241 241 240 242 246 246 246 248 249 250 254 261 265 270 273 272 274 273 279 286 292 291 298 299 298 298 282 265 260 258 256 257 258 260 263 266 268 271 274
232 238 240 237 240 247 249 247 250 250 252 254 254 255 257 259 263 265 267 268 270 270 274 280 286 286 291 298 299 297 297 284 272 261 260 259 259 260 263 265 267 269 271 273
231 233 238 240 242 245 252 252 254 255 255 255 253 254 254 259 267 264 263 263 266 273 277 280 280 287 290 297 296 294 292 280 271 267 262 258 259 262 263 265 270 276 277 277
232 235 236 240 238 242 245 250 250 248 251 252 253 253 253 258 256 261 269 268 270 273 275 277 282 285 286 292 292 289 286 274 267 266 267 265 268 271 273 274 277 272 271 273
235 233 233 236 236 236 236 239 247 249 248 252 254 258 260 258 258 256 258 264 270 274 277 281 281 281 283 286 285 286 282 274 268 265 265 265 266 269 271 272 273 273 274 278
234 235 238 242 240 234 238 242 246 245 255 255 255 254 255 256 254 254 258 265 270 271 275 277 278 280 281 281 280 281 273 270 270 267 265 268 273 276 276 279 281 281 279 286
231 231 230 235 237 244 243 238 246 250 254 251 252 249 250 256 259 256 261 267 270 274 274 274 276 278 277 277 278 273 267 265 268 272 273 271 271 275 277 274 280 281 285 284
230 228 229 230 234 240 242 242 245 249 247 249 252 258 259 259 261 266 267 268 269 268 269 275 276 277 275 275 273 269 268 269 272 273 275 274 277 278 277 275 278 280 279 280
226 228 234 236 236 238 242 243 247 243 250 253 258 258 258 262 266 265 263 265 269 270 271 271 271 272 272 271 271 271 270 270 271 275 273 275 270 281 277 277 279 280 280 277
232 234 233 237 236 239 245 247 245 252 253 254 257 260 262 263 263 268 267 268 268 268 266 265 265 266 268 269 268 270 271 272 274 271 267 264 267 275 273 278 280 280 278 281
230 235 244 239 245 251 240 239 245 247 250 255 256 260 263 264 269 269 269 267 264 263 265 263 265 267 268 269 269 272 273 273 267 267 268 269 270 271 274 275 276 280 284 286
227 228 239 237 236 236 235 241 244 250 252 251 257 257 260 264 266 266 264 262 261 258 261 265 273 273 271 272 273 274 274 273 266 268 276 276 276 275 275 277 279 281 282 287
230 236 232 240 244 247 244 246 249 253 255 257 258 257 260 262 262 260 261 262 261 266 269 268 267 269 271 274 273 272 271 271 270 271 272 274 275 275 277 279 280 282 286 291
235 240 242 247 245 245 248 248 247 250 251 252 254 256 256 254 254 256 256 256 259 262 268 268 269 269 267 269 267 268 262 266 269 268 269 273 276 277 279 282 285 288 290 292